Location: České Budějovice
(48.9747°N, 14.4743°E)
Time: 08:13:53
(UTC+01:00)

ISS - Visible Passes

Search period start: 18 January 2026 00:00
Search period end: 28 January 2026 00:00
Orbit: 413 x 424 km, 51.6° (Epoch: 17 January)

Date Brightness Start Highest point End Pass type
(mag) Time Alt. Az. Time Alt. Az. Time Alt. Az.
18 Jan -3.8 17:51:55 10° WSW 17:55:16 83° NNW 17:57:12 23° ENE visible
18 Jan -1.1 19:28:59 10° WNW 19:30:08 19° WNW 19:30:08 19° WNW visible
19 Jan -3.4 18:41:05 10° W 18:44:16 52° N 18:44:16 52° N visible
20 Jan -3.5 17:53:09 10° W 17:56:27 57° N 17:58:23 22° ENE visible
20 Jan -1.1 19:30:11 10° WNW 19:31:20 20° WNW 19:31:20 20° WNW visible
21 Jan -3.4 18:42:17 10° WNW 18:45:26 53° N 18:45:26 53° N visible
22 Jan -3.4 17:54:20 10° WNW 17:57:37 51° N 17:59:32 22° ENE visible
22 Jan -1.2 19:31:13 10° WNW 19:32:28 21° WNW 19:32:28 21° WNW visible
23 Jan -3.8 18:43:17 10° WNW 18:46:35 73° N 18:46:35 73° N visible
24 Jan -3.6 17:55:20 10° WNW 17:58:39 60° NNE 18:00:45 20° E visible
24 Jan -1.3 19:32:11 10° WNW 19:33:42 23° W 19:33:42 23° W visible
25 Jan -3.6 18:44:09 10° WNW 18:47:29 65° SSW 18:47:55 57° SSE visible
26 Jan -3.8 17:56:09 10° WNW 17:59:30 89° S 18:02:14 15° ESE visible
26 Jan -1.2 19:33:20 10° W 19:35:11 20° WSW 19:35:11 20° WSW visible
27 Jan -2.1 18:45:04 10° W 18:48:04 31° SW 18:49:37 21° SSE visible
